Orbital Elements at Epoch 2459200.5 (2020-Dec-17.0) TDB
Reference: JPL 6 (heliocentric ecliptic J2000)
Element | Value | Uncertainty (1-sigma) | Units |
e | .1006905168934403 | 1.1917e-07 | |
a | 3.006196129565599 | 4.5034e-08 | au |
q | 2.703500687396579 | 3.4358e-07 | au |
i | 11.73325241728269 | 1.044e-05 | deg |
node | 297.7069722966065 | 6.7921e-05 | deg |
peri | 19.68931703710199 | 9.3943e-05 | deg |
M | 265.4499021297678 | 6.7288e-05 | deg |
tp | 2459700.515970373348 (2022-May-01.01597037) | 0.00036162 | TDB |
period | 1903.813463857638 5.21 | 4.2779e-05 1.171e-07 | d yr |
n | .1890941559319279 | 4.249e-09 | deg/d |
Q | 3.308891571734618 | 4.9568e-08 | au |
|
| | Orbit Determination Parameters
Additional Information
|